This is the latest recevied weather packets stored in our database for station/object DL1ONI-13. If no packets are shown the sender has not sent any weather packets the latest 10 day(s).
| Time | Temp. | Humidity | Pressure | Rain* | Wind** | Luminosity | Snow |
|---|---|---|---|---|---|---|---|
| 1777602021 | 4.44° C | 25% | 1030.7 hPa | 0 mm | - | - | - |
| 1777598445 | 5.56° C | 25% | 1030.7 hPa | 0 mm | - | - | - |
| 1777590020 | 6.67° C | 25% | 1030.6 hPa | 0 mm | - | - | - |
| 1777587024 | 7.78° C | 25% | 1030.9 hPa | 0 mm | - | - | - |
| 1777579217 | 10° C | 25% | 1029.5 hPa | 0 mm | - | - | - |
| 1777576220 | 11.67° C | 25% | 1029.3 hPa | 0 mm | - | - | - |
| 1777573841 | 12.78° C | 25% | 1028.6 hPa | 0 mm | - | - | - |
| 1777573220 | 13.33° C | 25% | 1028.6 hPa | 0 mm | - | - | - |
| 1777571421 | 15° C | 25% | 1029 hPa | 0 mm | - | - | - |
| 1777570821 | 15° C | 25% | 1029 hPa | 0 mm | - | - | - |
| 1777569643 | 15.56° C | 25% | 1028.5 hPa | 0 mm | - | - | - |
| 1777569023 | 16.11° C | 25% | 1028.2 hPa | 0 mm | - | - | - |
| 1777567824 | 16.11° C | 25% | 1028.2 hPa | 0 mm | - | - | - |
| 1777563625 | 16.11° C | 25% | 1028.4 hPa | 0 mm | - | - | - |
| 1777561218 | 15.56° C | 25% | 1028.5 hPa | 0 mm | - | - | - |
| 1777560018 | 15.56° C | 25% | 1028.7 hPa | 0 mm | - | - | - |
| 1777557620 | 15° C | 25% | 1028.9 hPa | 0 mm | - | - | - |
| 1777550424 | 13.89° C | 25% | 1031.4 hPa | 0 mm | - | - | - |
| 1777548645 | 13.33° C | 25% | 1031.5 hPa | 0 mm | - | - | - |
| 1777548025 | 13.33° C | 25% | 1031.4 hPa | 0 mm | - | - | - |
| 1777545617 | 12.22° C | 25% | 1031.6 hPa | 0 mm | - | - | - |
| 1777544418 | 11.67° C | 25% | 1031.8 hPa | 0 mm | - | - | - |
| 1777543219 | 11.11° C | 25% | 1032 hPa | 0 mm | - | - | - |
| 1777537224 | 8.89° C | 25% | 1032 hPa | 0 mm | - | - | - |
| 1777528816 | 6.11° C | 25% | 1030.8 hPa | 0 mm | - | - | - |
* Rain latest hour (hover to see other rain measurements)
** Current wind speed in m/s (hover to see current wind gust speed)